星链-31656 (STARLINK-31656)

导读 | 豆包AI

STARLINK-31656是美国星链星座的成员卫星,于2024年7月28日发射升空,星链计划是太空探索技术公司(SpaceX)打造的大型低轨卫星互联网星座,该卫星主要为全球偏远地区、海洋、航空等场景提供高速低延迟的宽带互联网服务,补充完善星链星座的全球网络覆盖能力。

基本信息
目录编号:
60286
目录名称:
STARLINK-31656
国际标识:
2024-132J
轨道中心:
EARTH
卫星名称:
星链-31656 (STARLINK-31656)
卫星全名:
星链-31656 (STARLINK-31656)
卫星状态:
在轨 (已飞行595 天)
发射日期:
2024-07-28 UTC
国别 :
美国 (US)
星等 :
--
轨道信息
数据来源 国际轨道数据
星历时间: 2026-03-15T12:14:18+0800
10小时前
查看轨道信息
半长轴: 6853.435km
偏心率: 0.0001152
轨道倾角: 53.162°
近地点辐角 109.040°
升交点赤经 26.722°
平近点角 251.073°
近地点: 474.508km
远地点: 476.088km
周期: 94.107分钟
每日圈数: 15.301724
详细信息
卫星平台:
Starlink v2.0 mini
运营商:
太空探索技术公司
运营商所在国:
美国
制造商(研发单位):
太空探索技术公司
制造商所在国:
美国
使用方式:
暂无
卫星简介
星链(Starlink)计划是由太空探索技术公司(SpaceX)提出的一个巨型低轨卫星互联网星座项目,计划在2019年至2024年间在太空搭建由约1.2万颗卫星组成的“星链”网络,其中1584颗将部署在地球上空550千米处的近地轨道,并从2020年开始工作。该卫星仍在工作。
2D轨道图
3D轨道图
轨道高度分析图
轨道倾角分析图
轨道综合分析图
查看轨道综合分析图